CW9454 Weather Reports


time (UTC)temp
C
wind
direction
speed
KPH
gust
KPH
rain 1hr
cm
rain 24hr
cm
rain mn
cm
humidity
%
barometer
mb
20260510144038 20 176 0.0 0.0 0.00 0.00 0.00 76 1013.1
20260510143029 19 176 0.0 0.0 0.00 0.00 0.00 83 1013.1
20260510142042 18 176 0.0 0.0 0.00 0.00 0.00 86 1013.1
20260510141027 17 176 0.0 0.0 0.00 0.00 0.00 89 1013.2
20260510140013 16 175 0.0 0.0 0.00 0.00 0.00 90 1013.3
20260510135025 16 175 0.0 0.0 0.00 0.00 0.00 92 1013.2
20260510134049 15 175 0.0 0.0 0.00 0.00 0.00 93 1013.2
20260510133041 15 175 0.0 0.0 0.00 0.00 0.00 93 1013.1
20260510132026 15 175 0.0 0.0 0.00 0.00 0.00 94 1013.1
20260510131020 14 175 0.0 0.0 0.00 0.00 0.00 94 1013.2
20260510130023 14 175 0.0 0.0 0.00 0.00 0.00 94 1013.3
20260510125017 13 175 0.0 0.0 0.00 0.00 0.00 94 1013.7
20260510124101 13 175 0.0 0.0 0.00 0.00 0.00 94 1013.6
20260510123025 13 175 0.0 0.0 0.00 0.00 0.00 94 1013.7
20260510122019 13 175 0.0 0.0 0.00 0.00 0.00 93 1013.7
20260510121013 13 175 0.0 0.0 0.00 0.00 0.00 93 1013.4
20260510120020 12 175 0.0 0.0 0.00 0.00 0.00 93 1013.3
20260510115035 12 175 0.0 0.0 0.00 0.00 0.00 93 1013.2
20260510114028 12 173 0.0 0.0 0.00 0.00 0.00 93 1013.0
20260510113022 11 173 0.0 0.0 0.00 0.00 0.00 93 1012.9
20260510112016 11 173 0.0 0.0 0.00 0.00 0.00 92 1012.8
20260510111046 11 173 0.0 0.0 0.00 0.00 0.00 92 1012.6
20260510110012 11 173 0.0 0.0 0.00 0.00 0.00 92 1012.6
20260510105026 11 173 0.0 0.0 0.00 0.00 0.00 92 1012.3
20260510104040 11 173 0.0 0.0 0.00 0.00 0.00 91 1012.0
20260510103012 11 172 0.0 0.0 0.00 0.00 0.00 91 1011.7
20260510102027 11 173 0.0 0.0 0.00 0.00 0.00 91 1011.7
20260510101022 11 173 0.0 0.0 0.00 0.00 0.00 91 1011.7
20260510100028 11 173 0.0 0.0 0.00 0.00 0.00 91 1011.7
20260510095042 11 173 0.0 0.0 0.00 0.00 0.00 91 1011.7
20260510094035 11 173 0.0 0.0 0.00 0.00 0.00 91 1011.8
20260510093028 11 173 0.0 0.0 0.00 0.00 0.00 91 1011.8
20260510092022 11 173 0.0 0.0 0.00 0.00 0.00 91 1011.6
20260510091017 11 173 0.0 0.0 0.00 0.00 0.00 91 1011.6
20260510090023 11 173 0.0 0.0 0.00 0.00 0.00 91 1011.4
20260510085017 11 173 0.0 0.0 0.00 0.00 0.00 91 1011.4
20260510084031 11 173 0.0 0.0 0.00 0.00 0.00 91 1011.3
20260510083026 11 173 0.0 0.0 0.00 0.00 0.00 90 1011.2
20260510082039 11 173 0.0 0.0 0.00 0.00 0.00 90 1011.1
20260510081024 11 173 0.0 0.0 0.00 0.00 0.00 90 1011.1
20260510080041 11 173 0.0 0.0 0.00 0.00 0.00 89 1010.8
20260510075033 11 173 0.0 0.0 0.00 0.00 0.00 89 1010.8
20260510074015 12 173 0.0 0.0 0.00 0.00 0.00 89 1010.7
20260510073054 12 173 0.0 0.0 0.00 0.00 0.00 89 1010.6
20260510072017 12 173 0.0 0.0 0.00 0.00 0.00 89 1010.7
20260510071028 12 173 0.0 0.0 0.00 0.00 0.00 89 1010.6
20260510070016 12 173 0.0 0.0 0.00 0.00 0.00 89 1010.4
20260510065058 12 173 0.0 0.0 0.00 0.00 0.00 89 1010.2
20260510064030 12 173 0.0 0.0 0.00 0.00 0.00 89 1010.2
20260510063017 12 173 0.0 0.0 0.00 0.00 0.00 89 1010.2
20260510062013 12 173 0.0 0.0 0.00 0.00 0.00 89 1010.2
20260510061026 12 173 0.0 0.0 0.00 0.00 0.00 89 1010.2
20260510060013 13 173 0.0 0.0 0.00 0.00 0.00 88 1010.3
20260510055026 13 173 0.0 0.0 0.00 0.00 0.00 88 1010.4
20260510054020 13 173 0.0 0.0 0.00 0.00 0.00 88 1010.4
20260510053015 13 173 0.0 0.0 0.00 0.00 0.00 88 1010.5
20260510052029 13 173 0.0 0.0 0.00 0.00 0.00 88 1010.4
20260510051014 13 173 0.0 0.0 0.00 0.00 0.00 87 1010.4
20260510050029 13 173 0.0 0.0 0.00 0.00 0.00 87 1010.5
20260510045013 13 173 0.0 0.0 0.00 0.00 0.00 86 1010.6
20260510044036 13 173 0.0 0.0 0.00 0.00 0.00 86 1010.6
20260510043029 13 173 0.0 0.0 0.00 0.00 0.00 86 1010.6
20260510042041 13 173 0.0 0.0 0.00 0.00 0.00 85 1010.6
20260510041036 13 173 0.0 0.0 0.00 0.00 0.00 85 1010.4
20260510040042 13 173 0.0 0.0 0.00 0.00 0.00 84 1010.4
20260510035015 13 173 0.0 0.0 0.00 0.00 0.00 84 1010.5
20260510034026 14 173 0.0 0.0 0.00 0.00 0.00 84 1010.3
20260510033041 14 173 0.0 0.0 0.00 0.00 0.00 84 1010.4
20260510032034 14 173 0.0 0.0 0.00 0.00 0.00 84 1010.4
20260510031047 14 172 0.0 0.0 0.00 0.00 0.00 84 1010.3
20260510030050 15 173 0.0 0.0 0.00 0.00 0.00 83 1010.2
20260510025022 15 173 0.0 0.0 0.00 0.00 0.00 83 1010.2
20260510024015 15 173 0.0 0.0 0.00 0.00 0.00 83 1010.2
20260510023029 15 173 0.0 0.0 0.00 0.00 0.00 83 1010.2
20260510022022 15 173 0.0 0.0 0.00 0.00 0.00 83 1010.2
20260510021037 15 173 0.0 0.0 0.00 0.00 0.00 83 1010.3
20260510020022 16 173 0.0 0.0 0.00 0.00 0.00 83 1010.2
20260510015017 16 173 0.0 0.0 0.00 0.00 0.00 83 1010.1
20260510014031 16 173 0.0 0.0 0.00 0.00 0.00 83 1010.0
20260510013016 16 173 0.0 0.0 0.00 0.00 0.00 83 1009.9
20260510012101 16 173 0.0 0.0 0.00 0.00 0.00 81 1009.9
20260510011033 16 173 0.0 0.0 0.00 0.00 0.00 81 1009.7
20260510010040 17 173 0.0 0.0 0.00 0.00 0.00 81 1009.7
20260510005034 17 173 0.0 0.0 0.00 0.00 0.00 80 1009.6
20260510004018 17 173 0.0 0.0 0.00 0.00 0.00 79 1009.5
20260510003057 17 173 0.0 0.0 0.00 0.00 0.00 79 1009.4
20260510002022 18 173 0.0 0.0 0.00 0.00 0.00 78 1009.4
20260510001016 18 173 0.0 0.0 0.00 0.00 0.00 77 1009.4
20260510000021 18 173 0.0 0.0 0.00 0.00 0.00 76 1009.2
20260509235015 18 173 0.0 0.0 0.00 0.00 0.00 75 1009.1
20260509234028 19 173 0.0 0.0 0.00 0.00 0.00 73 1009.1
20260509233023 19 173 0.0 0.0 0.00 0.00 0.00 71 1008.9
20260509232017 20 173 0.0 0.0 0.00 0.00 0.00 71 1008.8
20260509231032 20 173 0.0 1.6 0.00 0.00 0.00 71 1008.9
20260509230019 20 173 0.0 0.0 0.00 0.00 0.00 71 1008.8
20260509225030 20 173 0.0 0.0 0.00 0.00 0.00 70 1008.7
20260509224024 20 173 0.0 0.0 0.00 0.00 0.00 70 1008.9
20260509223039 21 173 0.0 0.0 0.00 0.00 0.00 69 1008.9
20260509222054 21 173 0.0 1.6 0.00 0.00 0.00 68 1008.9
20260509221028 21 173 0.0 0.0 0.00 0.00 0.00 69 1009.0
20260509220033 21 173 0.0 0.0 0.00 0.00 0.00 70 1008.9
20260509215027 20 173 0.0 1.6 0.00 0.00 0.00 70 1009.0
20260509214040 21 158 0.0 0.0 0.00 0.00 0.00 69 1009.0
20260509213052 20 158 0.0 0.0 0.00 0.00 0.00 71 1009.1
20260509212016 20 158 0.0 0.0 0.00 0.00 0.00 69 1009.1
20260509211039 20 158 0.0 1.6 0.00 0.00 0.00 70 1009.0
20260509210016 20 150 0.0 0.0 0.00 0.00 0.00 71 1008.9
20260509205040 20 150 0.0 0.0 0.00 0.00 0.00 70 1008.9
20260509204024 20 150 0.0 4.8 0.00 0.00 0.00 69 1008.6
20260509203017 20 155 0.0 0.0 0.00 0.00 0.00 71 1008.7
20260509202031 20 156 0.0 0.0 0.00 0.00 0.00 72 1008.9
20260509201025 20 155 0.0 0.0 0.00 0.00 0.00 74 1009.0
20260509200012 20 155 1.6 8.0 0.00 0.00 0.00 72 1009.2
20260509195022 19 265 0.0 0.0 0.00 0.00 0.00 77 1009.4
20260509194016 19 265 0.0 1.6 0.00 0.00 0.00 76 1009.7
20260509193031 19 263 0.0 0.0 0.00 0.00 0.00 81 1009.7
20260509192018 18 263 0.0 0.0 0.00 0.00 0.00 80 1009.7
20260509191027 18 263 0.0 0.0 0.00 0.00 0.00 81 1009.9
20260509190013 18 263 0.0 0.0 0.00 0.00 0.00 78 1009.8
20260509185036 18 263 0.0 0.0 0.00 0.00 0.00 76 1010.0
20260509184021 18 263 0.0 0.0 0.00 0.00 0.00 76 1009.8
20260509183015 18 263 0.0 0.0 0.00 0.00 0.00 76 1010.1
20260509182029 18 263 0.0 0.0 0.00 0.00 0.00 76 1010.2
20260509181023 18 263 0.0 0.0 0.00 0.00 0.00 75 1010.5
20260509180050 18 263 0.0 0.0 0.00 0.00 0.00 75 1010.5
20260509175052 18 263 0.0 0.0 0.00 0.00 0.00 75 1010.5
20260509174016 18 263 0.0 0.0 0.00 0.00 0.00 74 1010.5
20260509173029 18 263 0.0 0.0 0.00 0.00 0.00 73 1010.5
20260509172024 18 263 0.0 0.0 0.00 0.00 0.00 72 1010.5
20260509171018 18 263 0.0 0.0 0.00 0.00 0.00 71 1010.7
20260509170023 18 263 0.0 0.0 0.00 0.00 0.00 71 1010.6
20260509165017 18 263 0.0 0.0 0.00 0.00 0.00 71 1010.5
20260509164031 18 263 0.0 0.0 0.00 0.00 0.00 70 1010.6
20260509163046 19 263 0.0 0.0 0.00 0.00 0.00 69 1010.6
20260509162018 19 263 0.0 0.0 0.00 0.00 0.00 68 1010.8
20260509161033 19 263 0.0 0.0 0.00 0.00 0.00 66 1010.9
20260509160020 20 263 0.0 1.6 0.00 0.00 0.00 66 1011.0
20260509155014 20 263 0.0 1.6 0.00 0.00 0.00 67 1011.0
20260509154024 20 263 0.0 1.6 0.00 0.00 0.00 68 1010.9
20260509153038 20 262 0.0 1.6 0.00 0.00 0.00 65 1011.1
20260509152022 19 262 0.0 4.8 0.00 0.00 0.00 68 1011.2
20260509151012 18 262 0.0 1.6 0.00 0.00 0.00 69 1011.5
20260509150019 18 262 0.0 6.4 0.00 0.00 0.00 70 1011.8
20260509145034 17 260 0.0 6.4 0.00 0.00 0.00 69 1011.8